Timeline UpdatesTrip UpdatesNews PostsPvt PostsTravel TipsAdmin PostsConv PostsFollowed PostsChat RequestsBlog PostsPNR Posts

Disclaimer
Search
 
 
Wed Aug 27, 2014 18:23:20 ISTHomeTrainsΣChainsAtlasPNRForumGalleryNewsFAQTripsMembersLoginFeedback
No Recent News for this Train
Other Trains in the News **new
Latest...
The 15483 Alipurduar Jn. - Delhi Sikkim Mahananda Express scheduled to leave Alipurduar Junction at 07.15 hours of 2nd August 2014 is cancelled as the 15484 Delhi - Alipurduar Jn. Sikkim Mahananda Express scheduled to leave Delhi on 31st July 2014 has been cancelled by Northern Railway.
Thu Jul 31, 2014 (07:59PM)
⇐ Return Journey: Train# 15483

14084⇒15484/Sikkim Mahananda Express

Jan 14 2014 (8:06PM)
Change Departure Station:
Change Arrival Station:
Post a Train Travel TipPost a Train Travel Tip **new
Post a Comment/Question/Picture/VideoPost a Comment/Question/Picture/Video
Pantry/Catering
✓ Pantry Car Avbl
✓ Catering Avbl
RSA - Rake Sharing
Rake/Coach Composition
LOCO-SLR-GS-GS-GS-S1-S2-S3-S4-S5-S6-S7-S8-S9-S10-S11-PC-B1-AB-GS-GS-GS-SLR
Loco
DLI - PNBE: Mughalsarai shed WAP-4 or Ghaziabad shed WAP-4/7 PNBE...
Read more...
- APDJ: WDP4/4B of Siliguri shed. **Spotted with MGS WAP-4 22739 at MGS on 30/03/2013**
News    PNR    Forum    Time-Table    Availability    Fare Chart    Map    Arr/Dep History    Trips    Gallery    ΣChains    X/O    Timeline    
Travel Time: 6h 16m    11 halts    Distance: 316 km    Avg Speed: 50 km/hr
Type: Mail/Express
Zone: NFR/Northeast Frontier
Departs @ 06:40 (Avg 43m late)
Platform# 9
SMTWTFS
Old Delhi Junction/DLI 
Arrives @ 12:56 (Avg 1h 13m late)
Platform# 3
SMTWTFS
Bharthana/BNT 

11 halts. 45 intermediate Stations between Old Delhi Junction and Bharthana

Show ALL intermediate Stations  Show Old Time-Table

#CodeStation NameX/OArrivesAvgDepartsAvgHaltPFDay#KmSpeedElevZoneAddress
1DLI»Old Delhi Junction (16)»  -06:40+43910.024219mNRNear Chandni Chowk Metro Station, Delhi NCT
2DSAShahdara Junction (4)  06:56+4906:58+492m216.329212mNRCircular Rd, Delhi NCT
3GZBGhaziabad Junction (6)X  07:26+4807:28+482m2119.980217mNRGhaziabad, Uttar Pradesh
4CHLChola (3)  08:04+1:0308:06+1:082m--168.058204mNCRTahsil Bulandshahar, Uttar Pradesh
5KRJKhurja Junction (4)X  08:21+1:0908:23+1:122m2182.671199mNCRBulandshahr, Uttar Pradesh
6ALJNAligarh Junction (4)X  09:00+1:1809:05+1:195m11126.182192mNCRAligarh, Uttar Pradesh
7HRSHathras Junction (3)X  09:27+1:2509:32+1:225m11156.286183mNCRMahamaya Nagar(05722-242803), Uttar Pradesh
8JLSJalesar Road (1)X  09:46+1:2609:48+1:292m11176.323172mNCRMDR 106W, Uttar Pradesh
9TDLTundla Junction (5)  11:00+1:0011:08+598m31204.245167mNCRDistt.Firozabad, Uttar Pradesh
10FZDFirozabad (4)  11:30+5911:32+1:012m21220.857164mNCRFirozabad, Uttar Pradesh
11SKBShikohabad Junction (4)X  11:53+1:0011:55+1:012m21240.677166mNCRDistrict Firozabad, Uttar Pradesh
12ETWEtawah (5)  12:38+1:0712:40+1:102m31296.075154mNCRDistt. Etawah, Uttar Pradesh
13BNT•Bharthana (3)•  12:56+1:1312:58+1:132m31315.969147mNCRBharthana, Uttar Pradesh
14ULDAchalda (3)  13:15+1:1313:17+1:022m31335.463147mNCRDist. Auraiya(05688-1072), Uttar Pradesh
15PHDPhaphund (4)X  13:33+1:0213:35+1:032m31352.270146mNCRdist. Auraiya, Uttar Pradesh
16JJKJhinjhak (3)  13:52+1:0213:54+1:032m31372.067140mNCRAuraiya, Uttar Pradesh
17RURARura (4)  14:11+1:0614:13+1:062m31391.145137mNCRJhinjhak, Uttar Pradesh
18CNBKanpur Central (10)X  15:12+1:1915:20+1:248m51435.474128mNCRKANPUR-208 001, Uttar Pradesh
19FTPFatehpur (3)  16:23+1:4716:25+1:522m21513.078120mNCRFatehpur, Uttar Pradesh
20ALDAllahabad Junction (10)X  17:55+1:5118:05+1:5810m41629.739100mNCRAllahabad 211003, Uttar Pradesh
21NYNNaini Junction (4)  18:16+2:2118:18+2:272m11636.88698mNCRAllahabad, Uttar Pradesh
22BDLVindhyachal (3)X  19:10+3:4319:12+3:492m21711.62188mNCRMirzapur, Uttar Pradesh
23MZPMirzapur (3)X  19:33+3:3319:35+3:392m21718.94588mNCRMirzapur, Uttar Pradesh
24MGSMughal Sarai Junction (8)X  21:00+4:4521:15+4:4315m11782.16683mECRMughalsarai 232101, Uttar Pradesh
25BXRBuxar (3)  22:41+4:5622:43+4:572m--1876.09167mECRBuxar, Bihar
26ARAAra Junction (3)X  23:28+4:5423:30+4:482m--1944.58863mECRarrah( 06182-233411), Bihar
27DNRDanapur (5)  23:57+5:2123:59+5:272m--1984.01658mECRKhagaul, Bihar
28PNBEPatna Junction (10)00:35+4:4401:00+4:4325m22993.47757mECRPatna 800001, Bihar
29BKPBakhtiyarpur Junction (5)X  01:35+5:1901:37+5:222m--21038.65951mECRPatna, Bihar
30MKAMokama Junction (4)X  02:22+5:5302:24+5:452m--21082.71448mECRPatna, Bihar
31BJUBarauni Junction (9)  03:55+5:1804:00+5:185m121103.43749mECRBegusarai, Bihar
32BGSBegu Sarai (3)X  04:22+5:3004:24+5:302m--21116.836 ECRBegusarai, Bihar
33LKNLakhminia (3)  04:54+5:2904:56+5:322m--21134.64845mECRBegusarai, Bihar
34SKJSahibpur Kamal Junction (2)  05:08+5:3005:10+5:302m--21144.32941mECRShahpur Kamal, Bihar
35KGGKhagaria Junction (3)XO  05:36+5:2205:38+5:242m--21156.76643mECRKhagaria, Bihar
36MNEMansi Junction (4)O  05:46+5:2705:48+5:302m--21165.54243mECRMansi, Bihar
37MSKMahes Khunt (2)  06:03+5:2906:05+5:312m--21175.93237mECRMaheshkhunt, Bihar
38PSRPasraha (3)  06:28+5:3206:30+5:402m--21188.32541mECRPasraha, Bihar
39NNRNarayanpur (2)O  06:58+5:2707:00+5:292m--21199.91639mECRNarayanpur, Bihar
40THBThana Bihpur Junction (3)X  07:28+5:2307:30+5:232m--21207.52839mECRThana Bihpur, Bihar
41NNANaugachia (3)X  08:04+5:0808:06+5:082m121223.43737mECRBhagalpur, Bihar
42KUEKurselaX  08:36+5:0208:38+5:032m--21241.96031mECRNH 31, Bihar
43CRRKaragola Road  08:55+4:5708:57+4:592m--21258.94636mECRLachhmipur, Bihar
44SMOSemapurX09:11+4:5109:13+4:572m--21269.74135mECRKatihar, Bihar
45KIRKatihar Junction (7)  09:30+5:3609:50+5:4020m621281.25335mNFRKatihar 854105, Bihar
46LAVLabha (2)  10:16+5:2910:18+5:302m121304.05529mNFRDist : Katihar, Bihar
47AZRAzamnagar Road (3)X  10:41+5:3310:43+5:352m--21325.16234mNFRAzamnagar, Bihar
48BOEBarsoi Junction (3)  10:56+5:3910:58+5:432m--21338.47637mNFRdist- katihar, Bihar
49DLKDalkhola (3)  11:21+5:4111:23+5:412m--21367.46844mNFRDalkola, West Bengal
50KNEKishanGanj (3)  11:48+6:0711:50+6:082m121396.07352mNFRKishanganj, Bihar
51AUBAluabari Road (2)X  12:15+5:4212:17+5:422m221426.6470mNFRDist - uttar Dinajpur, West Bengal
52NJPNew Jalpaiguri Junction (8)X  13:30+6:2113:45+6:2415m121483.322114mNFRCity-Siliguri . Dist-Jalpaiguri, West Bengal
53SGUJSiliguri Junction (5)  14:05+6:2814:10+6:425m421490.551120mNFRDist-Darjeeling Siliguri-734001, West Bengal
54NMZNew Mal Junction (3)X  15:06+7:0715:11+7:055m--21538.368161mNFRDist - Jalpaiguri, West Bengal
55BNVBinnaguri (3)  15:50+6:5215:52+6:522m--21582.749132mNFRDist : jalpaiguri, West Bengal
56DLODalgaon (3)  16:03+6:4116:05+6:412m--21591.743 NFRDist : Alipurduar, West Bengal
57HSAHasimara (3)X  16:40+7:0716:42+7:082m--21617.027123mNFRDist - Alipurduar, West Bengal
58APDJAlipur Duar Junction (3)  18:00+6:57---21651.8-53mNFRDist - Alipurduar, West Bengal
Scroll to Top
Scroll to Bottom